GPS Operational
NORAD ID: 23833
Int'l Code: 1996-019A
Perigee: 19,764.0 km
Apogee: 20,615.2 km
Inclination: 53.5 °
Period: 718.0 minutes
Semi major axis: 26560 km
Launch date: March 28, 1996
Source: United States (US)
PRN: 3
Two Line Element Set (TLE):
1 23833U 96019A 13140.79257113 .00000016 00000-0 10000-3 0 5232
2 23833 053.5416 091.8299 0160239 073.6311 288.0971 02.00561121125668
Source: AFSPC
NASA's NSSDC Master Catalog entry for NAVSTAR 37 (USA 117)